Location: Chisholm
(54.9102°N, 114.1701°W)
Time: 10:22:57
(UTC+00:00)

N. Korean satellite - Pass Details

Date: 04 December 2021
Orbit: 447 x 491 km, 97.3° (Epoch: 24 January)

Event Time Altitude Azimuth Distance (km) Brightness Sun altitude
Rises 12:40:35 0° 18° (NNE) 2,478 10.3 -24.7°
Reaches altitude 10° 12:42:42 10° 25° (NNE) 1,595 9.4 -24.4°
Maximum altitude 12:45:58 43° 99° (E) 646 7.6 -23.9°
Drops below altitude 10° 12:49:12 10° 172° (S) 1,574 9.3 -23.4°
Sets 12:51:17 0° 180° (S) 2,441 10.2 -23.1°
